Weather History for K12N - March, 2014

Change the Weather History Date:

Monday, March 3, 2014

  Actual Average (KFWN) Record (KFWN)
Temperature  
Mean Temperature 18 °F -  
Max Temperature 23 °F 44 °F 68 °F (1991)
Min Temperature 10 °F 23 °F 3 °F (2015)
Degree Days  
Heating Degree Days 48    
Moisture  
Dew Point 0 °F    
Average Humidity 48    
Maximum Humidity 58    
Minimum Humidity 42    
Precipitation  
Precipitation 0.00 in - - ()
Sea Level Pressure  
Sea Level Pressure 30.23 in    
Wind  
Wind Speed 8 mph (North)    
Max Wind Speed 12 mph    
Max Gust Speed 25 mph    
Averages and records for this station are not official NWS values.
T = Trace of Precipitation, MM = Missing Value Source: NWS Daily Summary

Daily Weather History Graph

Daily Weather History Graph

Search for Another Location

Airport or City:

Trip Planner

Search our weather history database for the weather conditions in past years. The results will help you decide how hot, cold, wet, or windy it might be!

Date:

Astronomy

Mar. 03, 2014 Rise Set
Actual Time 6:30 AM EST 5:52 PM EST
Civil Twilight 6:02 AM EST 6:19 PM EST
Nautical Twilight 5:30 AM EST 6:51 PM EST
Astronomical Twilight 4:58 AM EST 7:23 PM EST
Moon 7:35 AM EST (3/3) 8:54 PM EST (3/3)
Length of Visible Light 12h 17m
Length of Day
11h 22m
Waxing Crescent, 8% of the Moon is Illuminated
Mar 3
Waxing Crescent
Mar 8
First Quarter
Mar 16
Full
Mar 23
Last Quarter
Mar 30
New

Hourly Weather History & Observations

Time (EST) Temp. Windchill Dew Point Humidity Pressure Visibility Wind Dir Wind Speed Gust Speed Precip Events Conditions
12:54 AM 23.0 °F 14.7 °F 10.0 °F 58% 30.06 in - Variable 6.9 mph 16.1 mph N/A   Unknown
1:54 AM 21.9 °F 13.4 °F 8.1 °F 55% 30.07 in - Variable 6.9 mph 19.6 mph N/A   Unknown
2:54 AM 21.0 °F 11.4 °F 7.0 °F 55% 30.08 in - North 8.1 mph 17.3 mph N/A   Unknown
3:54 AM 18.0 °F 5.4 °F -0.9 °F 44% 30.10 in - North 11.5 mph 21.9 mph N/A   Unknown
4:54 AM 16.0 °F 3.6 °F -0.0 °F 49% 30.12 in - North 10.4 mph 25.3 mph N/A   Unknown
5:54 AM 15.1 °F 3.3 °F 1.0 °F 54% 30.15 in - North 9.2 mph - N/A   Unknown
6:54 AM 14.0 °F 2.9 °F -0.9 °F 52% 30.18 in - NNW 8.1 mph - N/A   Unknown
7:54 AM 14.0 °F 3.9 °F -0.9 °F 52% 30.20 in - Variable 6.9 mph 17.3 mph N/A   Unknown
8:54 AM 14.0 °F 2.9 °F -0.0 °F 54% 30.20 in - North 8.1 mph - N/A   Unknown
9:54 AM 15.1 °F 5.2 °F -0.0 °F 51% 30.22 in - North 6.9 mph - N/A   Unknown
10:54 AM 15.1 °F 2.5 °F -2.9 °F 45% 30.23 in - North 10.4 mph 18.4 mph N/A   Unknown
11:54 AM 15.1 °F 5.2 °F -2.0 °F 47% 30.25 in - North 6.9 mph - N/A   Unknown
12:54 PM 16.0 °F 7.4 °F -0.9 °F 47% 30.22 in - Variable 5.8 mph - N/A   Unknown
1:54 PM 17.1 °F 10.0 °F -0.0 °F 47% 30.22 in - NNE 4.6 mph 18.4 mph N/A   Unknown
2:54 PM 18.0 °F 9.8 °F -0.9 °F 44% 30.23 in - Variable 5.8 mph - N/A   Unknown
3:54 PM 19.0 °F 11.1 °F -0.0 °F 43% 30.24 in - Variable 5.8 mph - N/A   Unknown
4:54 PM 19.9 °F 10.1 °F -0.0 °F 42% 30.26 in - North 8.1 mph - N/A   Unknown
5:54 PM 19.0 °F 11.1 °F -0.9 °F 42% 30.28 in - North 5.8 mph - N/A   Unknown
6:54 PM 18.0 °F 11.1 °F -0.9 °F 44% 30.31 in - North 4.6 mph - N/A   Unknown
7:54 PM 17.1 °F 6.6 °F -2.0 °F 43% 30.33 in - North 8.1 mph - N/A   Unknown
8:54 PM 15.1 °F 3.3 °F -2.9 °F 45% 30.35 in - North 9.2 mph - N/A   Unknown
9:54 PM 12.9 °F 3.8 °F -4.0 °F 47% 30.37 in - North 5.8 mph - N/A   Unknown
10:54 PM 12.0 °F 1.5 °F -4.0 °F 49% 30.38 in - North 6.9 mph - N/A   Unknown
11:54 PM 10.0 °F 3.6 °F -4.0 °F 53% 30.38 in - NNE 3.5 mph - N/A   Unknown